Location: Bude?
(49.6659°N, 15.2145°E)
Time: 06:45:55
(UTC+00:00)

Daily predictions for brighter satellites

Satellite Brightness Start Highest point End
(mag) Time Altitude Azimuth Time Altitude Azimuth Time Altitude Azimuth
USA 215 3.8 16:05:40 10° ENE 16:11:53 47° N 16:18:05 10° WNW
Cosmos 1953 3.2 16:10:41 10° SSW 16:14:35 54° WNW 16:18:30 10° N
Cosmos 44 4.0 16:10:54 10° S 16:14:56 33° ESE 16:19:12 10° NE
NOAA 11 4.4 16:09:51 10° SE 16:15:07 52° ENE 16:20:22 10° N
USA 306 3.3 16:14:39 10° WNW 16:18:51 51° N 16:23:03 10° E
Cosmos 1818 4.3 16:14:39 10° WSW 16:19:58 52° NW 16:25:19 10° NE
CSL-04 DEB 4.3 16:16:44 10° NNE 16:20:41 83° ESE 16:24:36 10° SSW
Cosmos 968 Rocket 4.3 16:17:30 10° N 16:22:10 31° NE 16:26:46 10° ESE
Cosmos 2369 Rocket 3.8 16:19:11 10° WSW 16:24:16 32° NW 16:29:24 10° NNE
Cosmos 2297 Rocket 2.5 16:19:13 10° NNW 16:24:43 48° NE 16:30:11 10° SE
ERS-2 2.3 16:21:16 10° NNE 16:24:49 49° E 16:28:22 10° S
Aureole 3 Rocket 4.2 16:21:54 10° SE 16:25:27 28° E 16:30:04 10° NNE
Meteor 1-11 4.3 16:20:00 10° N 16:25:45 84° ENE 16:31:32 10° SSE
COSMOS 2487 4.3 16:24:56 10° NW 16:28:07 36° WSW 16:31:17 10° S
Cosmos 1340 3.4 16:25:26 10° N 16:28:49 30° ENE 16:32:12 10° SE
COSMO-SKYMED 1 3.4 16:26:57 10° NE 16:30:46 29° E 16:34:33 10° SSE
CORIOLIS 4.3 16:26:35 10° SSE 16:31:57 85° WSW 16:37:21 10° NNW
H-2A R/B 2.6 16:28:42 10° N 16:32:50 60° WNW 16:36:53 10° SSW
FengYun 1-2 T 4.3 16:27:25 10° SSE 16:33:03 78° ENE 16:38:43 10° NNW
Cosmos 1110 Rocket 4.0 16:29:23 10° SSW 16:34:36 72° ESE 16:39:49 10° NNE
NOSS 2-2 (C) 4.4 16:32:00 10° NW 16:37:20 79° NE 16:44:46 10° SE
Lacrosse 5 2.8 16:35:01 10° WNW 16:39:45 38° N 16:44:18 11° ENE
Timation 2 Rocket 4.2 16:33:11 10° NNW 16:39:48 89° ENE 16:46:37 10° SSE
Cosmos 1825 Rocket 3.8 16:35:53 10° NNW 16:40:22 79° W 16:44:47 10° S
Cosmos 1486 Rocket 4.4 16:37:22 10° NNW 16:42:31 45° ENE 16:47:35 10° SE
ADEOS Rocket 3.7 16:36:34 10° N 16:42:50 66° WNW 16:49:47 10° SSW
Cosmos 292 Rocket 3.8 16:39:10 10° S 16:43:52 60° ESE 16:48:39 10° NNE
Aureole 3 3.4 16:41:35 10° SSE 16:44:21 30° E 16:47:01 10° NNE
Meteor 2-21 Rocket 4.5 16:38:58 10° N 16:45:11 87° E 16:51:20 10° S
Okean O Rocket 2.6 16:41:15 10° S 16:45:31 51° W 16:49:47 10° NNW
FALCON 9 DEB 3.7 16:43:08 10° WNW 16:46:29 46° N 16:48:52 17° ENE
YAOGAN 1 3.3 16:43:33 10° SE 16:47:23 32° ENE 16:51:14 10° N
USA 281 4.0 16:41:43 10° S 16:48:10 58° WSW 16:54:39 10° NNW
ERBS 4.0 16:46:02 10° WNW 16:48:48 23° N 16:51:09 12° NE
FALCON 9 DEB 3.6 16:46:05 10° SW 16:49:08 40° SSE 16:51:05 19° E
FALCON 9 DEB 3.4 16:50:19 10° SW 16:53:22 45° SSE 16:55:10 21° E
CZ-2C R/B 3.6 16:48:17 10° SE 16:53:41 42° ENE 16:58:56 10° N
Feng Yun 1-1 Rocket 4.4 16:47:49 10° SSE 16:53:45 87° ENE 16:59:43 10° NNW
SMAP 4.4 16:50:00 10° S 16:54:26 44° W 16:58:55 10° NNW
Cosmos 2219 3.2 16:49:17 10° NNW 16:55:05 80° ENE 17:00:51 10° SSE
Cosmos 1455 3.6 16:54:00 10° SE 16:56:10 18° E 16:56:10 18° E
Cosmos 1726 Rocket 3.5 16:53:22 10° S 16:57:43 84° E 17:02:09 10° N
Cosmos 1943 Rocket 4.5 16:55:20 10° WNW 16:58:43 16° NNW 17:02:07 10° N
Cosmos 1553 Rocket 4.2 16:54:37 10° SSE 17:00:41 50° E 17:06:42 10° NNE
USA 307 3.0 16:57:39 10° WNW 17:01:57 66° NNE 17:04:41 21° E
Meteor 2-10 Rocket 4.1 16:58:56 10° SSE 17:03:38 34° E 17:08:13 10° NNE
Cosmos 2082 4.0 16:58:11 10° NNW 17:03:43 46° NE 17:08:49 12° SE
Cosmos 2228 3.5 17:00:38 10° SSW 17:04:50 62° WNW 17:09:06 10° N
CZ-4B R/B 2.0 17:01:39 10° N 17:04:51 56° WNW 17:07:57 10° SSW
Cosmos 1939 Rocket 2.8 17:01:19 10° SSE 17:05:17 89° ENE 17:09:14 10° NNW
FALCON 9 DEB 3.2 17:02:11 10° SW 17:05:22 52° SSE 17:06:44 28° E
USA 308 2.9 17:02:29 10° WNW 17:06:47 68° NNE 17:09:20 23° E
ATLAS 5 CENTAUR R/B 3.7 17:05:54 10° WNW 17:09:16 20° NNW 17:13:02 10° NNE
CZ-4 R/B 4.3 17:05:40 10° SSE 17:09:49 80° ENE 17:14:00 10° NNW
Helios 1A Rocket 2.8 17:08:19 10° SSE 17:12:26 76° ENE 17:16:33 10° NNW
Cosmos 1606 Rocket 4.3 17:09:07 10° SSW 17:13:24 55° WNW 17:17:46 10° N
FALCON 9 DEB 2.9 17:13:48 10° SW 17:16:59 66° SSE 17:17:56 40° E
ARGOS 3.7 17:13:10 15° SE 17:17:10 36° ENE 17:22:07 10° N
Okean-O 2.5 17:14:29 10° SSE 17:18:54 78° ENE 17:23:21 10° NNW
SKYMED 2 3.5 17:14:39 10° NNE 17:19:02 84° ESE 17:23:23 10° SSW
Cosmos 2369 4.5 17:14:20 10° SSE 17:19:11 29° ESE 17:21:09 24° ENE
Cosmos 1689 Rocket 1.9 17:17:24 10° NNE 17:20:19 89° W 17:23:11 10° SSW
Cosmos 2151 4.5 17:17:21 10° NNE 17:19:28 19° NE 17:19:28 19° NE
SL-08 R/B 4.4 17:15:07 10° N 17:21:21 83° E 17:27:27 10° S
Meteor 2-15 4.5 17:15:35 10° S 17:21:33 55° E 17:27:32 10° NNE
Cosmos 1656 3.6 17:17:06 10° SSW 17:22:35 62° ESE 17:28:10 10° NE
Cosmos 1745 Rocket 4.0 17:18:16 10° N 17:24:33 66° ENE 17:30:51 10° SSE
Cosmos 1400 Rocket 2.9 17:21:00 10° SSW 17:25:06 81° WNW 17:29:13 10° N
H-2A R/B 2.2 17:21:26 10° SE 17:26:41 54° ENE 17:32:01 10° N
PSLV R/B 3.8 17:23:06 10° NNE 17:27:19 85° E 17:31:28 10° SSW
Ariane Rocket 4.1 17:27:38 24° ENE 17:27:38 24° ENE 17:31:37 10° N
GEOS 3 Rocket 3.7 17:24:33 21° ESE 17:28:10 69° NE 17:33:33 10° NW
Geosat 4.4 17:26:30 25° ENE 17:28:46 38° ESE 17:33:27 10° S
Cosmos 2227 Rocket 2.3 17:23:20 10° NNW 17:29:00 77° WSW 17:34:39 10° SSE
CZ-4 R/B 1.2 17:25:22 10° SSE 17:29:15 89° W 17:33:08 10° NNW
Cosmos 2058 2.7 17:25:15 10° N 17:29:20 67° ENE 17:33:25 10° SSE
Cosmos 1892 2.7 17:26:47 10° N 17:30:41 85° W 17:34:33 10° S
Cosmos 220 Rocket 4.2 17:28:47 10° S 17:32:56 45° ESE 17:34:08 36° ENE
Timation 1 Rocket 4.5 17:28:29 10° NNW 17:34:24 54° NE 17:37:24 28° ESE
Cosmos 2263 Rocket 3.1 17:29:45 10° NNW 17:34:40 28° NE 17:35:34 27° ENE
Cosmos 1408 2.4 17:31:14 10° N 17:34:53 72° E 17:37:15 21° SSE
CSL-04 Rocket 3.7 17:29:31 10° SSE 17:35:01 64° ENE 17:40:28 10° N
BREEZE-M R/B 3.1 17:29:29 10° W 17:36:31 82° S 17:37:08 54° ESE
Cosmos 1386 Rocket 4.4 17:31:33 10° N 17:38:00 78° E 17:44:21 10° SSE
NOSS 3-4 (A) 4.1 17:34:27 10° NW 17:41:02 50° NE 17:44:11 32° E
NOSS 3-4 (C) 4.1 17:34:34 10° NW 17:41:09 50° NE 17:44:16 32° E
CZ-4C R/B 3.7 17:35:43 10° NW 17:41:36 33° NNE 17:44:25 26° ENE
Meteor 2-1 Rocket 4.1 17:36:31 10° S 17:41:56 62° E 17:47:24 10° NNE
Cosmos 2058 Rocket 4.0 17:42:26 10° SSW 17:46:49 51° WNW 17:51:14 10° N
Cosmos 1697 Rocket 2.7 17:41:44 10° S 17:47:09 53° ESE 17:49:37 31° NE
SeaSat 1 2.5 17:46:28 41° ESE 17:47:57 60° NE 17:52:50 10° NNW
SL-4 R/B 1.6 17:45:18 10° WNW 17:48:53 76° NNE 17:49:04 73° NE
Cosmos 1346 Rocket 3.0 17:45:38 10° NNW 17:49:37 70° W 17:53:35 10° S
CRYOSAT 2 4.2 17:46:31 10° N 17:51:25 74° E 17:56:16 10° S
Cosmos 1825 2.1 17:48:06 10° N 17:51:38 69° NE 17:51:38 69° NE
NOSS 3-3 (A) 4.0 17:46:23 10° SSW 17:52:02 54° ESE 17:54:18 36° ENE
NOSS 3-3 (C) 4.0 17:46:29 10° SSW 17:52:10 54° ESE 17:54:24 37° ENE
USA 305 2.9 17:48:22 10° WNW 17:52:41 75° SSW 17:53:27 57° SE
Cosmos 1709 Rocket 4.0 17:47:59 10° N 17:54:20 64° ENE 17:59:42 15° SSE
USA 215 3.5 17:51:39 35° E 17:54:21 58° NNE 18:00:45 10° WNW
Cosmos 44 4.2 17:51:38 10° WSW 17:56:02 45° NW 17:59:04 20° NNE
Cosmos 1315 Rocket 2.6 17:52:17 10° S 17:56:15 79° E 17:56:20 78° E
SJ-11-01 4.2 17:53:43 12° SSE 17:57:59 85° WSW 18:02:42 10° NNW
USA 306 3.0 17:54:47 10° WNW 17:59:03 70° SSW 17:59:35 61° SSE
BREEZE-M R/B 3.8 17:58:33 10° W 18:02:48 80° SSW 18:05:18 42° ESE
ATLAS 2AS CENTAUR R/B 3.1 17:55:46 10° NW 18:03:15 53° NE 18:05:17 42° E
Cosmos 968 Rocket 4.5 17:59:10 10° NNW 18:04:10 46° WSW 18:09:05 10° S
SJ 16-02 3.8 18:03:46 10° N 18:04:08 11° NNE 18:04:08 11° NNE
COSMO-SKYMED 1 4.2 18:03:01 10° N 18:06:58 34° WNW 18:10:54 10° SW
MOS 1 Rocket 3.2 18:03:15 10° NNE 18:07:56 88° ESE 18:12:51 10° SSW
Cosmos 2297 Rocket 3.8 18:03:34 10° NW 18:08:36 34° WSW 18:13:36 10° SSW
Cosmos 1076 Rocket 3.8 18:05:21 10° NNW 18:09:35 65° W 18:11:35 29° S
Cosmos 1980 Rocket 3.3 18:04:33 10° S 18:07:19 27° SSE 18:07:19 27° SSE
IRS-1A Rocket 4.4 18:10:35 52° ENE 18:10:35 52° ENE 18:15:47 10° N
Cosmos 1777 Rocket 4.3 18:06:19 10° NNW 18:10:50 49° NE 18:10:50 49° NE
Cosmos 883 Rocket 4.3 18:05:33 10° S 18:11:41 74° E 18:17:48 10° NNE
Cosmos 2315 Rocket 3.8 18:09:35 10° S 18:15:42 66° E 18:21:51 10° NNE
S3M 4.2 18:10:13 10° SSW 18:16:18 69° WNW 18:22:30 10° N
MOS 1 4.4 18:18:02 53° NE 18:18:02 53° NE 18:23:06 10° N
Cosmos 2227 4.4 18:16:44 10° NNW 18:21:44 52° NNE 18:21:44 52° NNE
YAOGAN 1 4.3 18:19:36 10° SSW 18:23:28 31° W 18:27:21 10° NNW
Lacrosse 5 2.6 18:18:49 10° WNW 18:23:30 41° N 18:23:30 41° N
Cosmos 2360 4.0 18:20:19 10° SSW 18:26:02 79° ESE 18:26:15 78° E
Cosmos 1812 Rocket 4.2 18:26:50 10° SSW 18:35:45 - N 18:30:36 53° WSW
Cosmos 1455 3.7 18:28:28 10° SW 18:31:13 34° WSW 18:31:13 34° WSW
Meteor 2-3 Rocket 4.0 18:30:01 10° N 18:34:44 58° NNE 18:34:44 58° NNE
USA 307 4.4 18:37:52 10° WNW 18:40:52 34° WSW 18:40:52 34° WSW
ATLAS 5 CENTAUR R/B 4.0 18:52:11 10° NW 18:55:01 18° N 18:55:01 18° N
ARGOS 4.3 18:54:41 24° SSW 18:57:23 40° W 19:02:31 10° NNW
Cosmos 2369 4.3 18:57:28 10° SW 19:03:04 55° NW 19:03:11 55° NW
Ariane Rocket 4.2 19:07:51 39° NW 19:07:51 39° NW 19:11:14 10° NNW
H-2A R/B 4.1 19:01:54 10° SSW 19:06:25 27° W 19:10:59 10° NW
Cosmos 1844 Rocket 4.5 19:02:55 10° NNW 19:05:18 22° N 19:05:18 22° N
Cosmos 2263 Rocket 3.2 19:13:25 10° NNW 19:17:16 43° NW 19:17:16 43° NW
SeaSat 1 4.4 19:26:16 25° W 19:26:16 25° W 19:29:50 10° NW
CZ-4C R/B 3.2 19:24:10 10° NW 19:29:36 58° NNW 19:29:36 58° NNW
Cosmos 1697 Rocket 4.2 19:26:22 10° WSW 19:31:24 33° NW 19:31:26 33° NW
NOSS 3-4 (A) 4.3 19:25:23 10° NW 19:31:39 55° WSW 19:31:39 55° WSW
NOSS 3-4 (C) 4.3 19:25:29 10° NW 19:31:43 55° WSW 19:31:43 55° WSW
USA 215 3.9 19:39:00 51° WNW 19:39:00 51° WNW 19:43:52 10° WNW
ATLAS 2AS CENTAUR R/B 3.7 19:47:07 10° NW 19:52:43 44° W 19:52:43 44° W
